Showing default

OPS 6582 (TRANSIT 5B-5), 965

Orbit data source: Space-Track

OPS 6582 (TRANSIT 5B-5), 965 is a payload satellite owned by USN BuWeps (US) in LEO that was launched on Sun, 13 Dec 1964 UTC via a THOR ABLESTAR launch vehicle from the Air Force Western Test Range (AFWTR). Payload-class satellites include a variety of spacecraft equipped with specific instruments for various scientific and technological missions. These include communications satellites like Starlink; space stations such as the ISS; scientific satellites like the Hubble; Earth observation satellites from companies like Planet Labs, Umbra, and HawkEye 360; GPS; miniature CubeSats for education and research; and military/defense satellites.

Loading next visibility...
Identifier
965, 1964-083D
Orbit
LEO
Country
Flag of USUS
Related business
Manufacturer
NAFI
Mission
Spacecraft
Bus & Motor
TRANSIT 5, Unknown motor
Mass
~54 kg wet, ~54 kg dry
Launch date (UTC)
1964-12-13 (62 years ago)
Launch vehicle
THOR ABLESTAR
Launch site
Air Force Western Test Range (AFWTR)
Object type
Payload
Rocket body
Debris
Shape & HBR
OCT CYL + 4 PAN + ANT, 1.1 m
Radar Cross Section
Large (>1 m²)

Expand to show TLE details & history
Last TLE update: 1 day ago

TLE from 1 day ago
0 OPS 6582 (TRANSIT 5B-5)
1   965U 64083D   26256.36561618  .00000035  00000-0  35509-4 0  9992
2   965  90.0846 203.7635 0042545  22.5902  92.1357 13.57019245 55571
Epoch: 2026-09-13T08:46Z
TLE epoch observation values (Epoch: 2026-09-13T08:46:29.237Z)
Latitude
64.86923°
Longitude
-100.04021°
Altitude
1,059.136 km
Speed
7.328 km/s
True Right ascension
01h 35m 46s
True Declination
64° 44' 32"
Sunlit
Object was in daylight at epoch
Visualization orbit readout
Latitude
Unknown
Longitude
Unknown
Altitude
Unknown
Speed
Unknown
Apparent Right ascension
Unknown
Apparent Declination
Unknown
Sunlit
N/A
Visualization observer readout
Local Sidereal Time
04:39:02
Azimuth
Unknown
Elevation
Unknown
Doppler factor
Unknown
Orbital elements
Apogee altitude
1,075.16 km
Perigee altitude
1,012.008 km
Semi-major axis
7,421.721 km
Eccentricity
0.00425
Inclination
90.0846°
RAAN
203.7635°
Arg. of periapsis
22.5902°
True anomaly
92.62279°
Mean anomaly
92.1357°
Eccentric anomaly
92.37925°
Mean motion
3.39458 °/min
Orbital period
106.05 mins
BSTAR
0.000035509
Loading maneuver chart data...
Computing Atmospheric mass density...

Documentation

Showing up to 5 results
|